Preview of NWS' New Version of Forecast
This preview is not operational and should not be used for support decisions.

Regional Weather Roundup (RWR)

Issued by National Weather Service (NWS)

                            
000
ASUS45 KBOU 192210
RWRCO 

WEATHER ROUNDUP FOR COLORADO
NATIONAL WEATHER SERVICE DENVER/BOULDER CO
400 PM MDT FRI APR 19 2019

NOTE: "FAIR" INDICATES FEW OR NO CLOUDS BELOW 12000 FEET WITH NO
SIGNIFICANT WEATHER AND/OR OBSTRUCTIONS TO VISIBILITY.

COZ001>005-013-030-031-192300-
...NORTHWEST COLORADO...
  
CITY           SKY/WX    TMP DP  RH WIND       PRES   REMARKS
CRAIG          FAIR      70  26  19 W9        30.13F                  
HAYDEN         FAIR      65  24  21 W10G17    30.16F                  
MEEKER         FAIR      69  20  15 VRB3      30.12F                  
RANGELY        FAIR      72  31  22 SW7       30.09F                  
RABBIT EARS PA NOT AVBL                                               
STEAMBOAT SPGS FAIR      61  30  30 NW3       30.17F                  
WALDEN         FAIR      59  23  25 W7G17     30.23F                  
$$

COZ006>008-011-192300-
...WEST CENTRAL VALLEYS...
  
CITY           SKY/WX    TMP DP  RH WIND       PRES   REMARKS
GRAND JUNCTION FAIR      74  28  18 NW9       30.08F                  
MONTROSE       FAIR      73  22  14 N7        30.13F                  
EAGLE          FAIR      70  21  15 SW18      30.15F                  
RIFLE          FAIR      74  21  13 SW8       30.10F                  
DELTA          FAIR      78  19  11 SW6G18    30.09F                  
NUCLA          FAIR      73  16  11 N7        30.17F                  
$$

COZ017>023-064>068-192300-
...SOUTHWEST COLORADO...
  
CITY           SKY/WX    TMP DP  RH WIND       PRES   REMARKS
DURANGO        FAIR      72  22  15 S12G24    30.15F                  
CORTEZ         FAIR      73  19  13 VRB3      30.14F                  
PAGOSA SPRINGS FAIR      68  20  15 S5        30.21F                  
TELLURIDE      FAIR      57  16  19 W9        30.33F                  
WOLF CREEK PAS FAIR      43  14  31 W5        30.50F                  
$$

COZ009-010-012-014-032>034-037-058>063-192300-
...CENTRAL COLORADO...
  
CITY           SKY/WX    TMP DP  RH WIND       PRES   REMARKS
ASPEN          FAIR      65  20  17 S7        30.20F                  
BUENA VISTA    FAIR      67   8   9 W12       30.19F                  
COPPER MTN     FAIR      46  18  31 W10G16    30.43F                  
BERTHOUD PASS  FAIR      36  27  69 NW30G40   30.42F                  
COTTONWOOD PAS FAIR      59   7  12 SW13G21   30.31F                  
GUNNISON       FAIR      64  22  20 VRB7      30.22F                  
GRANBY         FAIR      62  20  20 W13G20    30.23F                  
KREMMLING      FAIR      64  25  22 NW10G16   30.19F                  
LEADVILLE      FAIR      50  17  27 W8G18     30.31F                  
MONARCH PASS   FAIR      45  18  33 W22G30    30.54F                  
SALIDA         FAIR      72  14  10 W12G35    30.23F                  
SUNLIGHT       FAIR      46  19  34 SW5G16    30.42F                  
WILKERSON PASS FAIR      52  12  20 NW3       30.40F                  
$$

COZ069>075-192300-
...SAN LUIS VALLEY/SANGRE DE CRISTO MOUNTAINS...
  
CITY           SKY/WX    TMP DP  RH WIND       PRES   REMARKS
ALAMOSA        FAIR      67  13  12 CALM      30.17F                  
DEL NORTE      FAIR      68  14  12 W6G16     30.20F                  
LA VETA PASS   NOT AVBL                                               
SAGUACHE       FAIR      68  19  15 CALM      30.21F                  
$$

COZ035-036-038>040-192300-
...NORTHERN COLORADO FRONT RANGE...
  
CITY           SKY/WX    TMP DP  RH WIND       PRES   REMARKS
DENVER INTL AP FAIR      70  28  21 VRB5      30.07F                  
AURORA         MOSUNNY   71  30  22 E5        30.08F                  
FRONT RANGE AP NOT AVBL                                               
ERIE MUNI ARPT FAIR      73  26  17 SE6       30.09F                  
BOULDER MUN AP FAIR      72  30  21 E5        30.04F                  
CENTENNIAL     FAIR      70  29  21 VRB6      30.08F                  
BROOMFIELD     MOSUNNY   72  28  20 SE10      30.07F                  
FORT COLLINS   FAIR      74  32  21 S8        30.03F                  
LONGMONT       FAIR      76  29  18 SE6       30.05F                  
$$

COZ041-046-047-076>085-087-088-192300-
...PIKES PEAK/PALMER DIVIDE AND SOUTHERN FOOTHILLS...
  
CITY           SKY/WX    TMP DP  RH WIND       PRES   REMARKS
COLO. SPRINGS  FAIR      69  26  20 SE5       30.12F                  
A. F. ACADEMY  FAIR      67  25  20 SW6G17    30.10F                  
SCHRIEVER AFB  NOT AVBL                                               
CHEYENNE MTN   FAIR      63  24  22 SE17      30.09F                  
ELLICOTT         N/A    N/A N/A N/A CALM      30.10F                  
FALCON         FAIR      67  23  18 S7G22     30.16F                  
FORT CARSON    FAIR      70  26  19 E7        30.10F                  
LIMON          FAIR      69  28  21 N10       30.08F                  
MONUMENT HILL  FAIR      63  28  27 NE8       30.16F                  
CANON CITY     NOT AVBL                                               
WALSENBURG     NOT AVBL                                               
TRINIDAD       FAIR      71  27  19 VRB7G18   30.10F                  
$$

COZ042>045-048>051-090-091-192300-
...NORTHEAST COLORADO...
  
CITY           SKY/WX    TMP DP  RH WIND       PRES   REMARKS
GREELEY ARPT   FAIR      76  33  21 VRB3      30.02F                  
AKRON          FAIR      72  34  24 NW10      30.03F                  
BURLINGTON     FAIR      74  30  19 MISG      30.03F                  
WRAY           FAIR      73  32  21 N7        30.00F                  
YUMA           NOT AVBL                                               
STERLING       FAIR      75  34  22 NW10      29.98F                  
HOLYOKE        FAIR      79  36  21 CALM      29.98F                  
FORT MORGAN    NOT AVBL                                               
$$

COZ086-089-092>099-192300-
...SOUTHEAST COLORADO...
  
CITY           SKY/WX    TMP DP  RH WIND       PRES   REMARKS
PUEBLO         FAIR      75  28  17 E13G20    30.05F                  
LA JUNTA       FAIR      75  29  18 NE7       30.05F                  
LAMAR          FAIR      73  29  19 CALM      30.03F                  
SPRINGFIELD      N/A     70  29  21 CALM      30.06F                  
$$